Tracking 19794 objects as of 23-Jul-2019
HD Live streaming from Space Station
objects crossing your sky now

NOAA 16 DEB

Track NOAA 16 DEB now!
10-day predictions


NORAD ID: 42338
Int'l Code: 2000-055QE
Perigee: 773.3 km
Apogee: 847.8 km
Inclination: 98.8 °
Period: 100.9 minutes
Semi major axis: 7181 km
RCS: Unknown
Launch date: September 21, 2000
Source: United States (US)
Launch site: AIR FORCE WESTERN TEST RANGE (AFWTR)

Note: This is SATELLITE DEBRIS
aabbcc
Your satellite tracking list
Your tracking list is empty




NASA's NSSDC Master Catalog

Two Line Element Set (TLE):
1 42338U 00055QE  19203.05400655  .00001255  00000-0  53175-3 0  9997
2 42338  98.7532 286.5744 0051862 190.7879 169.2192 14.26505158176792
Source of the keplerian elements: AFSPC